Regional Weather Roundup
Issued by NWS

Home | Current Version | Previous Version | Graphics & Text | Print | Product List | Glossary Off
Versions: 1 2 3 4 5 6 7 8 9 10 11 12 13 14 15 16 17 18 19 20 21 22 23 24 25 26 27 28 29 30 31 32 33 34 35 36 37 38 39 40 41 42 43 44 45 46 47 48 49 50

000
ASUS43 KDMX 151807
RWRIA

WEATHER ROUNDUP FOR IOWA
NATIONAL WEATHER SERVICE DES MOINES IA
100 PM CDT MON SEP 15 2014

NOTE: "FAIR" INDICATES FEW OR NO CLOUDS BELOW 12,000 FEET WITH NO
SIGNIFICANT WEATHER AND/OR OBSTRUCTIONS TO VISIBILITY.

* - THESE STATIONS ARE NOT NWS STATIONS...THUS NOT UNDER NWS
QUALITY CONTROL.  THEY ALSO DO NOT REPORT WEATHER SUCH
AS PRECIPITATION OR FOG.

IAZ001>003-012>014-020>022-031>034-043>046-151900-
   NORTHWEST IOWA

CITY           SKY/WX    TMP DP  RH WIND       PRES   REMARKS
CARROLL *      CLOUDY    57  48  72 N17       30.22R
CHEROKEE *     CLOUDY    56  47  71 N12G18    30.25R
DENISON *      CLOUDY    57  46  67 N10G21    30.22R
LE MARS *      PTSUNNY   59  45  58 N10G17    30.26S
ORANGE CITY *  PTSUNNY   59  39  47 N7        30.26R
SHELDON *      PTSUNNY   59  43  55 N9G17     30.24S
SIOUX CITY     PTSUNNY   61  44  53 N12G20    30.26S
6HR MIN TEMP:  52; 6HR MAX TEMP:  62;

SPENCER        PTSUNNY   59  42  53 N17       30.24S
6HR MIN TEMP:  49; 6HR MAX TEMP:  60; 6HR PCP:  0.06;

STORM LAKE *   CLOUDY    55  50  82 N10       30.24R
$$

IAZ055>058-069>071-079>083-090>094-151900-
   SOUTHWEST IOWA

CITY           SKY/WX    TMP DP  RH WIND       PRES   REMARKS
ATLANTIC *     CLOUDY    59  50  72 NE14      30.20R
AUDUBON *      PTSUNNY   63  54  72 N12G17    30.22R
CLARINDA *     PTSUNNY   63  54  72 N13       30.19S
COUNCIL BLFS * PTSUNNY   63  52  67 N17G24    30.20R
CRESTON *      CLOUDY    57  52  82 NE13G20   30.17R
HARLAN  *      CLOUDY    59  50  72 N12G20    30.25R
LAMONI         CLOUDY    57  55  93 N16       30.14R FOG
6HR MIN TEMP:  57; 6HR MAX TEMP:  64; 6HR PCP: TRACE;

SHENANDOAH *   PTSUNNY   63  54  72 N15       30.20R
$$

IAZ047>049-059>061-072>074-084-151900-
   CENTRAL IOWA

CITY           SKY/WX    TMP DP  RH WIND       PRES   REMARKS
AMES           MOSUNNY   59  51  75 NE12G21   30.17R
6HR MIN TEMP:  52; 6HR MAX TEMP:  59; 6HR PCP: TRACE;

ANKENY *       CLOUDY    57  52  82 N14       30.17R
CHARITON *     CLOUDY    57  55  94 NW15      30.13R
DES MOINES     PTSUNNY   59  50  72 N12       30.16R
6HR MIN TEMP:  56; 6HR MAX TEMP:  63; 6HR PCP: TRACE;

GRINNELL*      CLOUDY    59  50  72 N14G23    30.14S
KNOXVILLE *    CLOUDY    59  54  82 N16       30.12R
MARSHALLTOWN   CLOUDY    54  49  83 NE15G23   30.16R
6HR MIN TEMP:  48; 6HR MAX TEMP:  57; 6HR PCP: TRACE;

PELLA *        PTSUNNY   62  55  77 N14       30.14R
PERRY *        PTSUNNY   61  50  67 N10G20    30.19S
$$

IAZ004>006-015-016-023>025-035-036-151900-
   NORTH CENTRAL IOWA

CITY           SKY/WX    TMP DP  RH WIND       PRES   REMARKS
ALGONA *       CLOUDY    55  46  71 N9G18     30.23R
CLARION *        N/A     55  46  71 NE8G17    30.21S
ESTHERVILLE    MOSUNNY   59  43  55 N15G21    30.23S
6HR MIN TEMP:  48; 6HR MAX TEMP:  59; 6HR PCP:  0.07;

FORT DODGE *   CLOUDY    55  45  67 N8        30.23R
MASON CITY     MOSUNNY   58  46  64 N14       30.21S
6HR MIN TEMP:  49; 6HR MAX TEMP:  59; 6HR PCP:  0.32;

FOREST CITY *  CLOUDY    55  46  71 N12       30.21S
IOWA FALLS *   CLOUDY    57  48  72 N12       30.20R
$$

IAZ007>011-017>019-026>030-037>042-050>054-066-151900-
   NORTHEAST IOWA

CITY           SKY/WX    TMP DP  RH WIND       PRES   REMARKS
CEDAR RAPIDS   CLOUDY    58  51  78 N22G28    30.11R
6HR MIN TEMP:  54; 6HR MAX TEMP:  66;

CHARLES CITY * CLOUDY    55  46  71 N10G17    30.20S
CLINTON *      MOSUNNY   63  54  72 S3        30.11F
DECORAH *      CLOUDY    52  48  87 N8G15     30.18R
DUBUQUE        LGT RAIN  52  51  97 N16G25    30.14R FOG
6HR MIN TEMP:  50; 6HR MAX TEMP:  58; 6HR PCP:  0.01;

MONTICELLO *   CLOUDY    55  52  88 N12G20    30.13S
OELWEIN *      PTSUNNY   55  52  88 NE13      30.16S
WATERLOO       CLOUDY    57  50  77 NE17      30.16S
6HR MIN TEMP:  50; 6HR MAX TEMP:  57; 6HR PCP:  0.02;

$$

IAZ064-065-067-068-078-151900-
   EAST CENTRAL IOWA

CITY           SKY/WX    TMP DP  RH WIND       PRES   REMARKS
DAVENPORT      PTSUNNY   63  51  65 E3        30.09S
6HR MIN TEMP:  54; 6HR MAX TEMP:  64;

IOWA CITY      PTSUNNY   68  58  70 NW8       30.09F
6HR MIN TEMP:  55; 6HR MAX TEMP:  68;

MT. PLEASANT * CLOUDY    62  55  78 CALM      30.09R
MUSCATINE *    CLOUDY    63  55  77 NW5       30.09S
QUAD CITIES    CLOUDY    62  53  72 NE3       30.08R
6HR MIN TEMP:  54; 6HR MAX TEMP:  63; 6HR PCP: TRACE;

$$

IAZ062-063-075>077-085>089-095>099-151900-
   SOUTHEAST IOWA

CITY           SKY/WX    TMP DP  RH WIND       PRES   REMARKS
BURLINGTON     CLOUDY    61  58  90 CALM      30.06S
6HR MIN TEMP:  55; 6HR MAX TEMP:  61; 6HR PCP:  0.91;

FAIRFIELD *    CLOUDY    64  57  77 VRB7      30.09R
FORT MADISON * CLOUDY    63  57  82 CALM      30.07S
KEOKUK *       CLOUDY    59  57  94 CALM      30.06S
OSKALOOSA *    CLOUDY    61  59  95 N10       30.11R
CENTERVILLE *  CLOUDY    61  57  88 N8        30.12R
OTTUMWA        CLOUDY    63  58  83 N12       30.10R
6HR MIN TEMP:  56; 6HR MAX TEMP:  64; 6HR PCP:  0.09;

WASHINGTON *   CLOUDY    64  61  88 N8        30.09S
$$

ABBREVIATIONS USED IN REMARKS
   TC - TEMPERATURES IN CELSIUS
  WCI - WIND CHILL INDEX
   HX - HEAT INDEX
  VSB - VISIBILITY
$$



USA.gov is the U.S. government's official web portal to all federal, state and local government web resources and services.